Weather History for Anaktuvuk Pass, AK

Change the Weather History Date:

Wednesday, January 2, 2013

  Actual Average Record
Temperature  
Mean Temperature 3 °F -  
Max Temperature 15 °F -5 °F 30 °F (2005)
Min Temperature -9 °F -16 °F -31 °F (2009)
Degree Days  
Heating Degree Days 62    
Moisture  
Dew Point -14 °F    
Average Humidity 67    
Maximum Humidity 100    
Minimum Humidity 30    
Precipitation  
Precipitation 0.00 in - - ()
Sea Level Pressure  
Sea Level Pressure 29.28 in    
Wind  
Wind Speed 7 mph (NE)    
Max Wind Speed 12 mph    
Max Gust Speed -    
Visibility 8 miles    
Events      
Averages and records for this station are not official NWS values.
T = Trace of Precipitation, MM = Missing Value Source: NWS Daily Summary

Daily Weather History Graph

Daily Weather History Graph

Search for Another Location

Airport:

Trip Planner

Search our weather history database for the weather conditions in past years. The results will help you decide how hot, cold, wet, or windy it might be!

Date:

Astronomy

Jan. 02, 2013 Rise Set
Actual Time 12:38 PM AKST 1:43 PM AKST
Civil Twilight 10:23 AM AKST 3:59 PM AKST
Nautical Twilight 8:56 AM AKST 5:26 PM AKST
Astronomical Twilight 7:45 AM AKST 6:37 PM AKST
Moon 11:42 PM AKST (1/2) 11:26 AM AKST (1/2)
Length of Visible Light 5h 35m
Length of Day
1h 04m
Waning Gibbous, 74% of the Moon is Illuminated
Jan 2
Waning Gibbous
Jan 4
Last Quarter
Jan 11
New
Jan 18
First Quarter
Jan 26
Full

Hourly Weather History & Observations

Time (AKST) Temp. Windchill Dew Point Humidity Pressure Visibility Wind Dir Wind Speed Gust Speed Precip Events Conditions
12:16 AM -9.4 °F -24.3 °F -16.6 °F 71% 29.19 in 10.0 mi NNE 6.9 mph - N/A   Overcast
12:36 AM -9.4 °F -25.6 °F -16.6 °F 71% 29.19 in 10.0 mi NNE 8.1 mph - N/A   Overcast
12:56 AM -9.4 °F -26.8 °F -16.6 °F 71% 29.20 in 10.0 mi NNE 9.2 mph - N/A   Overcast
1:16 AM -9.4 °F -25.6 °F -16.6 °F 71% 29.20 in 10.0 mi NNE 8.1 mph - N/A   Overcast
1:36 AM -7.6 °F -22.1 °F -16.6 °F 65% 29.21 in 10.0 mi NNE 6.9 mph - N/A   Overcast
1:56 AM -7.6 °F -22.1 °F -16.6 °F 65% 29.21 in 10.0 mi NNE 6.9 mph - N/A   Overcast
2:16 AM -7.6 °F -22.1 °F -16.6 °F 65% 29.20 in 10.0 mi NNE 6.9 mph - N/A   Overcast
2:36 AM -7.6 °F -22.1 °F -14.8 °F 71% 29.20 in 4.0 mi NNE 6.9 mph - N/A   Overcast
2:56 AM -7.6 °F -22.1 °F -14.8 °F 71% 29.20 in 3.0 mi NNE 6.9 mph - N/A   Overcast
3:16 AM -7.6 °F -20.6 °F -14.8 °F 71% 29.20 in 3.0 mi NNE 5.8 mph - N/A   Overcast
3:36 AM -7.6 °F -23.4 °F -14.8 °F 71% 29.20 in 3.0 mi NNE 8.1 mph - N/A   Overcast
3:56 AM -7.6 °F -22.1 °F -14.8 °F 71% 29.20 in 3.0 mi NNE 6.9 mph - N/A   Overcast
4:16 AM -7.6 °F -24.6 °F -14.8 °F 71% 29.21 in 3.0 mi NNE 9.2 mph - N/A   Overcast
4:36 AM -7.6 °F -23.4 °F -14.8 °F 71% 29.21 in 3.0 mi NE 8.1 mph - N/A   Overcast
4:56 AM -7.6 °F -24.6 °F -14.8 °F 71% 29.21 in 3.0 mi NE 9.2 mph - N/A   Overcast
5:16 AM -7.6 °F -23.4 °F -14.8 °F 71% 29.21 in 3.0 mi NNE 8.1 mph - N/A   Overcast
5:36 AM -7.6 °F -24.6 °F -14.8 °F 71% 29.22 in 5.0 mi NNE 9.2 mph - N/A   Overcast
5:56 AM -7.6 °F -24.6 °F -14.8 °F 71% 29.22 in 5.0 mi NNE 9.2 mph - N/A   Overcast
6:16 AM -7.6 °F -25.7 °F -14.8 °F 71% 29.22 in 5.0 mi NNE 10.4 mph - N/A   Overcast
6:36 AM -7.6 °F -24.6 °F -14.8 °F 71% 29.22 in 4.0 mi NNE 9.2 mph - N/A   Overcast
6:56 AM -7.6 °F -25.7 °F -14.8 °F 71% 29.22 in 3.0 mi NNE 10.4 mph - N/A   Overcast
7:16 AM -7.6 °F -24.6 °F -14.8 °F 71% 29.22 in 3.0 mi NNE 9.2 mph - N/A   Overcast
7:36 AM -7.6 °F -23.4 °F -14.8 °F 71% 29.23 in 2.5 mi NNE 8.1 mph - N/A   Overcast
7:56 AM -7.6 °F -23.4 °F -14.8 °F 71% 29.23 in 3.0 mi NNE 8.1 mph - N/A   Overcast
8:16 AM -7.6 °F -23.4 °F -14.8 °F 71% 29.23 in 4.0 mi NNE 8.1 mph - N/A   Overcast
8:36 AM -7.6 °F -24.6 °F -14.8 °F 71% 29.24 in 6.0 mi NNE 9.2 mph - N/A   Overcast
8:56 AM -7.6 °F -23.4 °F -14.8 °F 71% 29.24 in 4.0 mi NNE 8.1 mph - N/A   Overcast
9:16 AM -7.6 °F -24.6 °F -16.6 °F 65% 29.24 in 3.0 mi NNE 9.2 mph - N/A   Overcast
9:36 AM -7.6 °F -23.4 °F -16.6 °F 65% 29.25 in 10.0 mi NE 8.1 mph - N/A   Overcast
9:56 AM -7.6 °F -23.4 °F -16.6 °F 65% 29.25 in 9.0 mi NNE 8.1 mph - N/A   Overcast
10:16 AM -7.6 °F -23.4 °F -16.6 °F 65% 29.26 in 10.0 mi NNE 8.1 mph - N/A   Overcast
10:36 AM -7.6 °F -23.4 °F -16.6 °F 65% 29.27 in 5.0 mi NNE 8.1 mph - N/A   Overcast
10:56 AM -7.6 °F -24.6 °F -14.8 °F 71% 29.28 in 9.0 mi NE 9.2 mph - N/A   Overcast
11:16 AM -7.6 °F -23.4 °F -14.8 °F 71% 29.28 in 10.0 mi NNE 8.1 mph - N/A   Overcast
11:36 AM -7.6 °F -22.1 °F -14.8 °F 71% 29.29 in 10.0 mi NE 6.9 mph - N/A   Overcast
11:56 AM -7.6 °F -23.4 °F -14.8 °F 71% 29.29 in 10.0 mi NNE 8.1 mph - N/A   Overcast
12:16 PM -7.6 °F -20.6 °F -14.8 °F 71% 29.29 in 8.0 mi NNE 5.8 mph - N/A   Overcast
12:36 PM -7.6 °F -20.6 °F -14.8 °F 71% 29.29 in 6.0 mi NNE 5.8 mph - N/A   Overcast
12:56 PM -7.6 °F -18.8 °F -14.8 °F 71% 29.29 in 4.0 mi NNE 4.6 mph - N/A   Overcast
1:16 PM -7.6 °F -18.8 °F -14.8 °F 71% 29.30 in 5.0 mi NNE 4.6 mph - N/A   Overcast
1:36 PM -7.6 °F -22.1 °F -14.8 °F 71% 29.30 in 10.0 mi NNE 6.9 mph - N/A   Overcast
1:56 PM -7.6 °F -16.5 °F -14.8 °F 71% 29.30 in 10.0 mi NNE 3.5 mph - N/A   Mostly Cloudy
2:16 PM -7.6 °F -18.8 °F -16.6 °F 65% 29.30 in 10.0 mi NNE 4.6 mph - N/A   Clear
2:36 PM -7.6 °F -18.8 °F -16.6 °F 65% 29.31 in 10.0 mi North 4.6 mph - N/A   Scattered Clouds
2:56 PM -7.6 °F -18.8 °F -16.6 °F 65% 29.32 in 10.0 mi North 4.6 mph - N/A   Scattered Clouds
3:16 PM -7.6 °F -16.5 °F -16.6 °F 65% 29.32 in 10.0 mi North 3.5 mph - N/A   Overcast
3:36 PM -7.6 °F - -14.8 °F 71% 29.32 in 5.0 mi Calm Calm - N/A   Overcast
3:56 PM -7.6 °F - -14.8 °F 71% 29.32 in 6.0 mi Calm Calm - N/A   Overcast
4:36 PM -5.8 °F -14.5 °F -14.8 °F 65% 29.32 in 10.0 mi SSW 3.5 mph - N/A   Overcast
4:56 PM -7.6 °F -16.5 °F -16.6 °F 65% 29.32 in 10.0 mi SW 3.5 mph - N/A   Mostly Cloudy
5:16 PM -7.6 °F - -16.6 °F 65% 29.32 in 10.0 mi Calm Calm - N/A   Partly Cloudy
5:36 PM -7.6 °F -16.5 °F -16.6 °F 65% 29.33 in 10.0 mi SSW 3.5 mph - N/A   Mostly Cloudy
5:56 PM -5.8 °F -16.7 °F -14.8 °F 65% 29.34 in 10.0 mi WSW 4.6 mph - N/A   Overcast
6:16 PM -5.8 °F -14.5 °F -9.4 °F 84% 29.34 in 10.0 mi SSW 3.5 mph - N/A   Overcast
6:36 PM -4.0 °F - -11.2 °F 71% 29.34 in 10.0 mi Calm Calm - N/A   Overcast
6:56 PM -4.0 °F -12.4 °F -9.4 °F 78% 29.35 in 10.0 mi SW 3.5 mph - N/A   Overcast
7:16 PM -0.4 °F -10.4 °F -0.4 °F 100% 29.35 in 10.0 mi WSW 4.6 mph - N/A   Overcast
7:36 PM -2.2 °F - -14.8 °F 55% 29.35 in 10.0 mi Calm Calm - N/A   Mostly Cloudy
7:56 PM -2.2 °F -12.5 °F -5.8 °F 85% 29.35 in 10.0 mi SSW 4.6 mph - N/A   Partly Cloudy
8:16 PM -0.4 °F -8.3 °F -11.2 °F 60% 29.36 in 10.0 mi SSW 3.5 mph - N/A   Clear
8:36 PM 1.4 °F - -5.8 °F 72% 29.36 in 10.0 mi Calm Calm - N/A   Scattered Clouds
8:56 PM 5.0 °F -10.8 °F 1.4 °F 85% 29.36 in 10.0 mi SSE 11.5 mph - N/A   Overcast
9:16 PM 5.0 °F -9.1 °F -20.2 °F 30% 29.36 in 10.0 mi SSE 9.2 mph - N/A   Scattered Clouds
9:36 PM 6.8 °F -5.9 °F -16.6 °F 34% 29.37 in 10.0 mi SSE 8.1 mph - N/A   Partly Cloudy
9:56 PM 8.6 °F -4.7 °F -11.2 °F 40% 29.37 in 10.0 mi SSE 9.2 mph - N/A   Clear
10:16 PM 8.6 °F -3.7 °F -5.8 °F 52% 29.38 in 10.0 mi South 8.1 mph - N/A   Clear
10:36 PM 8.6 °F -3.7 °F -2.2 °F 62% 29.38 in 10.0 mi South 8.1 mph - N/A   Clear
10:56 PM 6.8 °F - -4.0 °F 61% 29.39 in 10.0 mi Calm Calm - N/A   Clear
11:16 PM 10.4 °F -2.4 °F - N/A% 29.39 in 10.0 mi SSE 9.2 mph - N/A   Mostly Cloudy
11:36 PM 15.8 °F 5.1 °F -7.6 °F 35% 29.40 in 10.0 mi South 8.1 mph - N/A   Overcast
11:56 PM 14.0 °F 2.9 °F -2.2 °F 49% 29.41 in 10.0 mi SSE 8.1 mph - N/A   Overcast